Time,TemperatureF,DewpointF,PressureIn,WindDirection,WindDirectionDegrees,WindSpeedMPH,WindSpeedGustMPH,Humidity,HourlyPrecipIn,Conditions,Clouds,dailyrainin,SoftwareType,DateUTC
2013-11-26 00:11:00,66.5,63.0,30.06,ENE,68,2.0,7.0,88,0.00,,,0.00,weatherlink.com 1.10,2013-11-26 05:11:00,
2013-11-26 00:26:00,66.4,63.0,30.06,ESE,121,1.0,4.0,89,0.00,,,0.00,weatherlink.com 1.10,2013-11-26 05:26:00,
2013-11-26 00:41:00,66.2,63.0,30.05,ESE,105,0.0,3.0,89,0.00,,,0.00,weatherlink.com 1.10,2013-11-26 05:41:00,
2013-11-26 00:56:00,66.3,63.0,30.05,SE,125,0.0,5.0,90,0.00,,,0.00,weatherlink.com 1.10,2013-11-26 05:56:00,
2013-11-26 01:11:00,66.4,64.0,30.04,ESE,118,1.0,5.0,90,0.00,,,0.00,weatherlink.com 1.10,2013-11-26 06:11:00,
2013-11-26 01:26:00,66.5,64.0,30.03,SE,129,2.0,7.0,90,0.00,,,0.00,weatherlink.com 1.10,2013-11-26 06:26:00,
2013-11-26 01:41:00,66.5,64.0,30.03,ESE,118,0.0,4.0,91,0.00,,,0.00,weatherlink.com 1.10,2013-11-26 06:41:00,
2013-11-26 01:56:00,66.6,64.0,30.02,ESE,107,4.0,5.0,91,0.00,,,0.00,weatherlink.com 1.10,2013-11-26 06:56:00,
2013-11-26 02:11:00,66.7,64.0,30.02,ESE,108,3.0,6.0,91,0.00,,,0.00,weatherlink.com 1.10,2013-11-26 07:11:00,
2013-11-26 02:26:00,66.8,64.0,30.02,ESE,107,1.0,5.0,91,0.00,,,0.00,weatherlink.com 1.10,2013-11-26 07:26:00,
2013-11-26 02:41:00,66.7,64.0,30.01,ESE,103,1.0,5.0,91,0.00,,,0.00,weatherlink.com 1.10,2013-11-26 07:41:00,
2013-11-26 02:56:00,66.8,64.0,30.01,ESE,113,1.0,5.0,91,0.00,,,0.00,weatherlink.com 1.10,2013-11-26 07:56:00,
2013-11-26 03:11:00,66.7,64.0,30.01,SE,136,0.0,3.0,92,0.00,,,0.00,weatherlink.com 1.10,2013-11-26 08:11:00,
2013-11-26 03:26:00,66.7,64.0,30.00,East,98,2.0,4.0,92,0.00,,,0.00,weatherlink.com 1.10,2013-11-26 08:26:00,
2013-11-26 03:41:00,66.7,65.0,29.99,East,101,0.0,5.0,93,0.00,,,0.00,weatherlink.com 1.10,2013-11-26 08:41:00,
2013-11-26 03:56:00,66.7,65.0,29.98,ESE,114,1.0,4.0,93,0.00,,,0.00,weatherlink.com 1.10,2013-11-26 08:56:00,
2013-11-26 04:11:00,66.7,65.0,29.98,ESE,112,0.0,5.0,93,0.00,,,0.00,weatherlink.com 1.10,2013-11-26 09:11:00,
2013-11-26 04:26:00,66.8,65.0,29.98,SE,130,0.0,3.0,93,0.00,,,0.00,weatherlink.com 1.10,2013-11-26 09:26:00,
2013-11-26 04:41:00,67.0,65.0,29.98,ESE,114,4.0,7.0,94,0.00,,,0.00,weatherlink.com 1.10,2013-11-26 09:41:00,
2013-11-26 04:56:00,67.1,65.0,29.97,ESE,105,0.0,4.0,94,0.04,,,0.04,weatherlink.com 1.10,2013-11-26 09:56:00,
2013-11-26 05:11:00,67.1,65.0,29.97,ESE,111,2.0,5.0,94,0.05,,,0.05,weatherlink.com 1.10,2013-11-26 10:11:00,
2013-11-26 05:26:00,67.4,66.0,29.97,ESE,111,2.0,10.0,94,0.06,,,0.06,weatherlink.com 1.10,2013-11-26 10:26:00,
2013-11-26 05:41:00,67.5,66.0,29.97,SE,134,1.0,9.0,94,0.07,,,0.07,weatherlink.com 1.10,2013-11-26 10:41:00,
2013-11-26 05:56:00,67.6,66.0,29.96,SE,127,3.0,11.0,95,0.06,,,0.11,weatherlink.com 1.10,2013-11-26 10:56:00,
2013-11-26 06:11:00,67.6,66.0,29.97,SE,142,6.0,9.0,95,0.12,,,0.17,weatherlink.com 1.10,2013-11-26 11:11:00,
2013-11-26 06:26:00,67.6,66.0,29.96,ESE,108,2.0,11.0,95,0.15,,,0.21,weatherlink.com 1.10,2013-11-26 11:26:00,
2013-11-26 06:41:00,67.6,66.0,29.96,ESE,105,3.0,7.0,95,0.18,,,0.25,weatherlink.com 1.10,2013-11-26 11:41:00,
2013-11-26 06:56:00,67.7,67.0,29.96,East,88,4.0,6.0,96,0.15,,,0.26,weatherlink.com 1.10,2013-11-26 11:56:00,
2013-11-26 07:11:00,67.9,67.0,29.96,SSW,203,2.0,10.0,96,0.10,,,0.27,weatherlink.com 1.10,2013-11-26 12:11:00,
2013-11-26 07:26:00,68.0,67.0,29.96,ESE,123,4.0,6.0,96,0.06,,,0.27,weatherlink.com 1.10,2013-11-26 12:26:00,
2013-11-26 07:42:00,68.3,67.0,29.95,SE,127,1.0,6.0,96,0.03,,,0.28,weatherlink.com 1.10,2013-11-26 12:42:00,
2013-11-26 07:57:00,68.6,68.0,29.94,SE,129,5.0,11.0,96,0.02,,,0.28,weatherlink.com 1.10,2013-11-26 12:57:00,
2013-11-26 08:12:00,68.9,68.0,29.94,SE,124,5.0,9.0,96,0.01,,,0.28,weatherlink.com 1.10,2013-11-26 13:12:00,
2013-11-26 08:27:00,69.3,68.0,29.94,South,172,3.0,10.0,96,0.01,,,0.28,weatherlink.com 1.10,2013-11-26 13:27:00,
2013-11-26 08:42:00,69.8,69.0,29.94,ESE,107,3.0,12.0,96,0.00,,,0.28,weatherlink.com 1.10,2013-11-26 13:42:00,
2013-11-26 08:57:00,70.2,69.0,29.94,ESE,116,7.0,11.0,96,0.00,,,0.28,weatherlink.com 1.10,2013-11-26 13:57:00,
2013-11-26 09:12:00,70.8,70.0,29.95,SE,136,3.0,10.0,96,0.00,,,0.28,weatherlink.com 1.10,2013-11-26 14:12:00,
2013-11-26 09:27:00,71.2,70.0,29.95,SSE,167,5.0,9.0,96,0.00,,,0.28,weatherlink.com 1.10,2013-11-26 14:27:00,
2013-11-26 09:42:00,72.1,71.0,29.95,SSE,149,2.0,8.0,95,0.00,,,0.28,weatherlink.com 1.10,2013-11-26 14:42:00,
2013-11-26 09:57:00,73.1,71.0,29.95,ESE,115,9.0,11.0,94,0.00,,,0.28,weatherlink.com 1.10,2013-11-26 14:57:00,
2013-11-26 10:12:00,74.2,72.0,29.95,SSW,200,6.0,13.0,93,0.00,,,0.28,weatherlink.com 1.10,2013-11-26 15:12:00,
2013-11-26 10:27:00,74.6,72.0,29.94,SE,124,7.0,11.0,91,0.00,,,0.28,weatherlink.com 1.10,2013-11-26 15:27:00,
2013-11-26 10:42:00,74.8,72.0,29.94,SSE,155,4.0,14.0,90,0.00,,,0.28,weatherlink.com 1.10,2013-11-26 15:42:00,
2013-11-26 10:57:00,76.0,73.0,29.93,East,84,8.0,16.0,89,0.00,,,0.28,weatherlink.com 1.10,2013-11-26 15:57:00,
2013-11-26 11:12:00,77.4,73.0,29.91,ESE,104,3.0,19.0,86,0.00,,,0.28,weatherlink.com 1.10,2013-11-26 16:12:00,
2013-11-26 11:27:00,78.1,73.0,29.91,SSE,167,3.0,20.0,84,0.00,,,0.28,weatherlink.com 1.10,2013-11-26 16:27:00,
2013-11-26 11:42:00,78.5,73.0,29.91,SSW,205,8.0,16.0,82,0.00,,,0.28,weatherlink.com 1.10,2013-11-26 16:42:00,
2013-11-26 11:57:00,79.0,73.0,29.90,SE,128,6.0,18.0,81,0.00,,,0.28,weatherlink.com 1.10,2013-11-26 16:57:00,
2013-11-26 12:12:00,79.2,73.0,29.89,SSW,203,4.0,16.0,81,0.00,,,0.28,weatherlink.com 1.10,2013-11-26 17:12:00,
2013-11-26 12:27:00,79.4,73.0,29.88,SSW,212,10.0,15.0,80,0.00,,,0.28,weatherlink.com 1.10,2013-11-26 17:27:00,
2013-11-26 12:42:00,79.8,73.0,29.86,South,178,7.0,14.0,79,0.00,,,0.28,weatherlink.com 1.10,2013-11-26 17:42:00,
2013-11-26 12:57:00,78.8,73.0,29.85,South,183,8.0,18.0,81,0.01,,,0.29,weatherlink.com 1.10,2013-11-26 17:57:00,
2013-11-26 13:12:00,79.9,73.0,29.85,SE,138,13.0,14.0,78,0.01,,,0.29,weatherlink.com 1.10,2013-11-26 18:12:00,
2013-11-26 13:28:00,81.3,73.0,29.84,SSW,205,5.0,15.0,76,0.01,,,0.29,weatherlink.com 1.10,2013-11-26 18:28:00,
2013-11-26 13:43:00,80.9,72.0,29.84,SE,146,8.0,13.0,75,0.01,,,0.29,weatherlink.com 1.10,2013-11-26 18:43:00,
2013-11-26 13:58:00,81.7,72.0,29.83,SE,136,11.0,16.0,73,0.00,,,0.29,weatherlink.com 1.10,2013-11-26 18:58:00,
2013-11-26 14:13:00,82.4,73.0,29.82,South,176,6.0,18.0,73,0.00,,,0.29,weatherlink.com 1.10,2013-11-26 19:13:00,
2013-11-26 14:28:00,82.8,72.0,29.80,WSW,238,7.0,13.0,70,0.00,,,0.29,weatherlink.com 1.10,2013-11-26 19:28:00,
2013-11-26 14:43:00,82.0,72.0,29.80,SSW,205,6.0,14.0,71,0.00,,,0.29,weatherlink.com 1.10,2013-11-26 19:43:00,
2013-11-26 14:58:00,82.1,72.0,29.80,SW,222,1.0,14.0,72,0.00,,,0.29,weatherlink.com 1.10,2013-11-26 19:58:00,
2013-11-26 15:13:00,81.7,72.0,29.80,SE,146,3.0,12.0,72,0.00,,,0.29,weatherlink.com 1.10,2013-11-26 20:13:00,
2013-11-26 15:28:00,81.6,72.0,29.80,East,94,4.0,10.0,72,0.00,,,0.29,weatherlink.com 1.10,2013-11-26 20:28:00,
2013-11-26 15:43:00,81.4,72.0,29.80,SE,146,7.0,12.0,72,0.00,,,0.29,weatherlink.com 1.10,2013-11-26 20:43:00,
2013-11-26 15:58:00,81.3,71.0,29.79,SW,218,0.0,11.0,72,0.00,,,0.29,weatherlink.com 1.10,2013-11-26 20:58:00,
2013-11-26 16:13:00,80.8,71.0,29.79,ESE,117,6.0,11.0,72,0.00,,,0.29,weatherlink.com 1.10,2013-11-26 21:13:00,
2013-11-26 16:28:00,80.0,71.0,29.79,WSW,238,4.0,8.0,73,0.00,,,0.29,weatherlink.com 1.10,2013-11-26 21:28:00,
2013-11-26 16:43:00,79.4,71.0,29.80,South,176,3.0,7.0,75,0.00,,,0.29,weatherlink.com 1.10,2013-11-26 21:43:00,
2013-11-26 16:58:00,78.9,71.0,29.79,SW,219,1.0,5.0,77,0.00,,,0.29,weatherlink.com 1.10,2013-11-26 21:58:00,
2013-11-26 17:13:00,78.3,71.0,29.79,South,190,1.0,5.0,78,0.00,,,0.29,weatherlink.com 1.10,2013-11-26 22:13:00,
2013-11-26 17:28:00,77.9,71.0,29.79,SSW,195,2.0,7.0,79,0.00,,,0.29,weatherlink.com 1.10,2013-11-26 22:28:00,
2013-11-26 17:43:00,77.5,71.0,29.80,SSE,155,0.0,8.0,80,0.00,,,0.29,weatherlink.com 1.10,2013-11-26 22:43:00,
2013-11-26 17:58:00,77.3,71.0,29.81,SSW,211,1.0,7.0,81,0.00,,,0.29,weatherlink.com 1.10,2013-11-26 22:58:00,
2013-11-26 18:13:00,77.0,71.0,29.80,SW,229,1.0,11.0,82,0.00,,,0.29,weatherlink.com 1.10,2013-11-26 23:13:00,
2013-11-26 18:28:00,76.8,71.0,29.80,SSE,157,3.0,11.0,83,0.00,,,0.29,weatherlink.com 1.10,2013-11-26 23:28:00,
2013-11-26 18:43:00,76.8,72.0,29.78,SW,228,2.0,11.0,84,0.00,,,0.29,weatherlink.com 1.10,2013-11-26 23:43:00,
2013-11-26 18:58:00,76.6,72.0,29.78,SW,226,5.0,9.0,85,0.00,,,0.29,weatherlink.com 1.10,2013-11-26 23:58:00,
2013-11-26 19:13:00,76.4,72.0,29.79,WSW,255,1.0,9.0,85,0.00,,,0.29,weatherlink.com 1.10,2013-11-27 00:13:00,
2013-11-26 19:28:00,76.2,72.0,29.80,SE,133,1.0,11.0,86,0.00,,,0.29,weatherlink.com 1.10,2013-11-27 00:28:00,
2013-11-26 19:43:00,76.2,72.0,29.81,SSE,149,2.0,8.0,86,0.00,,,0.29,weatherlink.com 1.10,2013-11-27 00:43:00,
2013-11-26 19:58:00,76.2,72.0,29.81,SSE,160,3.0,14.0,87,0.00,,,0.29,weatherlink.com 1.10,2013-11-27 00:58:00,
2013-11-26 20:13:00,75.9,72.0,29.80,SSE,157,2.0,11.0,88,0.00,,,0.29,weatherlink.com 1.10,2013-11-27 01:13:00,
2013-11-26 20:28:00,75.4,72.0,29.79,SSW,198,3.0,9.0,90,0.00,,,0.29,weatherlink.com 1.10,2013-11-27 01:28:00,
2013-11-26 20:43:00,75.0,72.0,29.79,SSE,162,3.0,7.0,90,0.00,,,0.29,weatherlink.com 1.10,2013-11-27 01:43:00,
2013-11-26 20:58:00,74.8,72.0,29.80,South,187,1.0,9.0,91,0.00,,,0.29,weatherlink.com 1.10,2013-11-27 01:58:00,
2013-11-26 21:13:00,74.7,72.0,29.79,SW,233,4.0,10.0,91,0.00,,,0.29,weatherlink.com 1.10,2013-11-27 02:13:00,
2013-11-26 21:28:00,74.5,72.0,29.79,SW,222,4.0,7.0,91,0.00,,,0.29,weatherlink.com 1.10,2013-11-27 02:28:00,
2013-11-26 21:43:00,74.2,72.0,29.78,SSW,208,1.0,6.0,91,0.00,,,0.29,weatherlink.com 1.10,2013-11-27 02:43:00,
2013-11-26 21:58:00,74.0,71.0,29.79,SSE,157,1.0,3.0,91,0.00,,,0.29,weatherlink.com 1.10,2013-11-27 02:58:00,
2013-11-26 22:13:00,74.1,72.0,29.79,SSE,166,2.0,6.0,92,0.00,,,0.29,weatherlink.com 1.10,2013-11-27 03:13:00,
2013-11-26 22:28:00,74.1,72.0,29.79,South,184,2.0,8.0,92,0.00,,,0.29,weatherlink.com 1.10,2013-11-27 03:28:00,
2013-11-26 22:43:00,74.1,72.0,29.78,SW,228,2.0,9.0,92,0.00,,,0.29,weatherlink.com 1.10,2013-11-27 03:43:00,
2013-11-26 22:58:00,74.0,72.0,29.77,SSW,195,3.0,8.0,92,0.01,,,0.30,weatherlink.com 1.10,2013-11-27 03:58:00,
2013-11-26 23:13:00,73.7,72.0,29.77,SW,214,3.0,8.0,93,0.01,,,0.30,weatherlink.com 1.10,2013-11-27 04:13:00,
2013-11-26 23:28:00,73.6,72.0,29.77,SW,222,1.0,8.0,93,0.01,,,0.30,weatherlink.com 1.10,2013-11-27 04:28:00,
2013-11-26 23:43:00,73.5,72.0,29.76,SSE,167,2.0,8.0,94,0.06,,,0.35,weatherlink.com 1.10,2013-11-27 04:43:00,
2013-11-26 23:58:00,73.3,72.0,29.77,SSW,205,3.0,6.0,94,0.10,,,0.40,weatherlink.com 1.10,2013-11-27 04:58:00,